Home   Weather   Adelaide   Past weeks

Flag for Australia Past Weather in Adelaide, South Australia, Australia — Yesterday and Last 2 Weeks

Now
73 °F

Sunny.


Feels Like: 77 °F
Forecast: 65 / 89 °F
Wind: 13 mph from Southwest

Location: Adelaide Airport

Current Time: Dec 3, 2016 at 12:54:46 pm

Latest Report: Dec 3, 2016 at 12:30 pm


Visibility: 10 mi

Pressure: 29.89 "Hg

Humidity: 38%

Dew Point: 46 °F

Location of AdelaideLocation

Past Weather in Adelaide — Graph

°F

Adelaide Temperature Yesterday

Maximum temperature yesterday: 72 °F (at 5:30 pm)
Minimum temperature yesterday: 52 °F (at 5:30 am)
Average temperature yesterday: 62 °F

High & Low Weather Summary for the Past Weeks

 TemperatureHumidityPressure
High95 °F (Nov 20, 6:30 pm)94% (Nov 21, 9:30 pm)30.24 "Hg (Nov 21, 9:30 pm)
Low46 °F (Nov 24, 6:00 am)19% (Nov 20, 6:30 pm)29.65 "Hg (Nov 21, 4:00 am)
Average63 °F59%29.98 "Hg
* Reported Nov 18 11:30 am — Dec 3 11:30 am, Adelaide, Weather by CustomWeather, © 2016

Note: Actual official high and low records may vary slightly from our data, if they occured in-between our weather recording intervals... More about our weather records

Advertising

Adelaide Weather History for the Previous 24 Hours

Scroll right to see more
 ConditionsComfort  
Time TempWeatherWind HumidityBarometerVisibility
11:30 am
Sat, Dec 3
70 °FSunny.10 mph46%29.89 "Hg10 mi
11:00 am70 °FSunny.9 mph43%29.92 "Hg10 mi
10:30 am68 °FSunny.9 mph43%29.92 "Hg10 mi
10:00 am68 °FSunny.5 mph43%29.92 "Hg10 mi
9:30 am68 °FSunny.5 mph40%29.92 "Hg10 mi
9:00 am64 °FSunny.2 mph46%29.95 "Hg10 mi
8:30 am63 °FSunny.1 mph45%29.95 "Hg10 mi
8:00 am61 °FSunny.No wind52%29.95 "Hg10 mi
7:30 am61 °FSunny.No wind52%29.95 "Hg10 mi
7:00 am57 °FSunny.3 mph63%29.95 "Hg10 mi
6:30 am52 °FSunny.No wind77%29.92 "Hg10 mi
6:00 am50 °FClear.No wind82%29.92 "Hg10 mi
5:30 am50 °FClear.1 mph82%29.92 "Hg10 mi
5:00 am50 °FClear.No wind82%29.92 "Hg10 mi
4:30 am52 °FClear.No wind77%29.92 "Hg10 mi
3:30 am52 °FClear.1 mph77%29.92 "Hg10 mi
3:00 am54 °FClear.7 mph72%29.92 "Hg10 mi
2:30 am54 °FClear.7 mph72%29.92 "Hg10 mi
2:00 am55 °FClear.7 mph67%29.92 "Hg10 mi
1:30 am55 °FClear.8 mph67%29.92 "Hg10 mi
1:00 am55 °FClear.8 mph67%29.95 "Hg10 mi
12:30 am55 °FClear.8 mph67%29.95 "Hg10 mi
11:30 pm
Fri, Dec 2
57 °FClear.12 mph63%29.95 "Hg10 mi
10:30 pm57 °FClear.10 mph67%29.95 "Hg10 mi
10:00 pm59 °FClear.12 mph63%29.95 "Hg10 mi
9:30 pm59 °FClear.13 mph63%29.95 "Hg10 mi
8:30 pm61 °FSunny.15 mph59%29.95 "Hg10 mi
8:00 pm63 °FSunny.14 mph56%29.95 "Hg10 mi
7:30 pm64 °FSunny.15 mph49%29.92 "Hg10 mi
6:30 pm70 °FSunny.16 mph43%29.92 "Hg10 mi
6:00 pm72 °FSunny.16 mph44%29.89 "Hg10 mi
5:30 pm72 °FSunny.17 mph44%29.89 "Hg10 mi
5:00 pm70 °FPartly sunny.16 mph53%29.89 "HgN/A
4:30 pm70 °FPartly sunny.21 mph57%29.89 "HgN/A
3:30 pm66 °FPartly sunny.21 mph60%29.92 "HgN/A
3:00 pm68 °FPartly sunny.20 mph53%29.92 "HgN/A
2:30 pm68 °FPartly sunny.20 mph56%29.92 "HgN/A
2:00 pm66 °FPartly sunny.20 mph56%29.95 "HgN/A
1:30 pm68 °FPartly sunny.18 mph53%29.95 "HgN/A
1:00 pm68 °FPartly sunny.18 mph53%29.95 "HgN/A
12:30 pm66 °FPartly sunny.18 mph56%29.95 "HgN/A
12:00 pm66 °FScattered clouds.16 mph60%29.95 "HgN/A
Weather by CustomWeather, © 2016

See weather overviewHow to use our weather pages